Regional Weather Roundup
Issued by NWS

Home | Current Version | Previous Version | Text Only | Print | Product List | Glossary Off
Versions: 1 2 3 4 5 6 7 8 9 10 11 12 13 14 15 16 17 18 19 20 21 22 23 24 25 26 27 28 29 30 31 32 33 34 35 36 37 38 39 40 41 42 43 44 45 46 47 48 49 50

000
ASUS45 KCYS 190210
RWRWY

WYOMING REGIONAL WEATHER ROUNDUP
NATIONAL WEATHER SERVICE CHEYENNE WY
700 PM MST THU DEC 18 2014

NOTE:  "FAIR" INDICATES FEW OR NO CLOUDS BELOW 12,000 FEET
WITH NO SIGNIFICANT WEATHER AND/OR OBSTRUCTIONS TO VISIBILITY.

WYZ001-190300-
YELLOWSTONE NATIONAL PARK

CITY           SKY/WX    TMP DP  RH WIND       PRES   REMARKS
LK YELLOWSTONE   N/A     23  16  74 CALM      30.08S
W YELLOWSTONE  NOT AVBL

$$
WYZ002>013-054>058-071-098>099-190300-
NORTHERN WYOMING

CITY           SKY/WX    TMP DP  RH WIND       PRES   REMARKS
JACKSON        LGT SNOW  18  16  93 E6        30.09F FOG     WCI   9
CODY           FAIR      25  12  58 W5        30.00S WCI  19
GREYBULL       FAIR      15  11  83 N3        30.07R
WORLAND        FAIR      15  10  80 W3        30.06R
SHERIDAN       FAIR      24  14  65 S3        29.98R
BUFFALO        FAIR      32  13  45 SW3       29.99R
GILLETTE       FAIR      29  17  61 SW10      29.99R WCI  20
HULETT           N/A    N/A N/A N/A MISG        N/A
NEWCASTLE      FAIR      27  23  86 CALM      30.03R

$$
WYZ014>020-022>026-101>103-190300-
CENTRAL WYOMING

CITY           SKY/WX    TMP DP  RH WIND       PRES   REMARKS
BIG PINEY      FAIR      16  10  77 N8        30.11R WCI   5
PINEDALE       FAIR      12  10  92 NW7       30.11R WCI   2
DUBOIS         CLOUDY    23  16  74 NW3       30.04S
LANDER         FAIR       7   3  84 CALM      30.06S
RIVERTON       FOG       11   9  92 CALM      30.08R VSB 1/4
CASPER         FAIR      21  15  78 SW12      30.05R WCI   9
DOUGLAS        FAIR      23  16  74 NW5       30.05R WCI  17

$$
WYZ021-027>030-104>119-190300-
SOUTHERN WYOMING

CITY           SKY/WX    TMP DP  RH WIND       PRES   REMARKS
EVANSTON       CLOUDY    26  22  84 SW12      30.13R WCI  16
KEMMERER       CLOUDY    27  21  80 W6        30.12R WCI  20
FORT BRIDGER   CLOUDY    29  24  82 SW5       30.15R WCI  23
ROCK SPRINGS   MOCLDY    24  17  74 W9        30.11R WCI  14
DIXON          CLOUDY    21  19  94 SE5       30.16S WCI  14
RAWLINS        FAIR      19  15  84 SW7       30.10R WCI  10
SARATOGA       FAIR      12  10  92 CALM      30.12R
LARAMIE        FAIR      21  13  71 SW5       30.04R WCI  15
CHEYENNE       FAIR      28  16  60 W7        30.05R WCI  21
TORRINGTON     FAIR      27  22  81 CALM      30.04S
PINE BLUFFS    FAIR      28  21  74 CALM      30.07R

$$


USA.gov is the U.S. government's official web portal to all federal, state and local government web resources and services.